Location: La Davidi�re
(46.4131°N, 1.7062°E)
Time: 02:05:02
(UTC+00:00)

Daily predictions for brighter satellites

Satellite Brightness Start Highest point End
(mag) Time Altitude Azimuth Time Altitude Azimuth Time Altitude Azimuth
CENTAUR R/B 4.5 01:54:27 10° NW 02:01:20 34° NNE 02:09:00 10° E
ADEOS II 4.3 02:15:55 10° NNE 02:17:29 20° NNE 02:17:29 20° NNE
USA 234 4.2 02:20:13 10° ESE 02:24:10 39° E 02:24:10 39° E
Lacrosse 5 4.1 02:40:09 20° E 02:40:09 20° E 02:41:55 10° E
Cosmos 2082 Rocket 4.1 02:42:36 23° N 02:42:36 23° N 02:45:03 10° NNE
Cosmos 2333 Rocket 4.2 02:39:23 10° N 02:44:09 26° NE 02:48:53 10° ESE
Cosmos 2219 Rocket 4.1 02:54:23 10° N 02:59:11 27° NE 03:03:58 10° ESE
CZ-2C R/B 4.1 02:58:00 10° NE 03:01:58 26° E 03:02:01 26° E
CZ-2D R/B 4.5 03:06:10 10° NNW 03:06:50 12° NNW 03:06:50 12° NNW
USA 238 DEB 4.2 03:06:10 10° NW 03:13:19 63° NE 03:20:48 10° SE
USA 238 4.2 03:06:16 10° NW 03:13:26 63° NE 03:20:54 10° SE
COSMOS 2428 4.4 03:10:35 10° N 03:15:37 30° NE 03:20:38 10° ESE
ATLAS 5 CENTAUR R/B 4.2 03:19:17 11° ESE 03:20:02 12° ESE 03:21:27 10° E
S3M 4.0 03:21:13 69° SE 03:21:47 74° E 03:27:58 10° NNE
ARIANE 5 R/B 3.4 03:20:04 10° N 03:23:22 41° N 03:23:22 41° N
Cosmos 1745 Rocket 3.9 03:19:18 10° N 03:25:39 86° E 03:26:32 69° SSE
USA 267 3.3 03:28:35 10° NE 03:35:02 63° NNW 03:35:57 57° WNW
Cosmos 2322 4.2 03:30:54 10° NNW 03:36:31 57° ENE 03:42:06 10° SE
Cosmos 1709 Rocket 4.4 03:31:02 10° N 03:37:24 64° E 03:43:43 10° SSE
NOSS 3-2 (A) 3.9 03:34:34 10° NW 03:42:08 84° SW 03:50:41 10° SSE
H-2A R/B 4.2 03:38:46 10° ESE 03:42:14 26° ENE 03:45:40 10° N
Spot 4 Rocket 4.0 03:41:42 10° N 03:46:28 69° NW 03:46:28 69° NW
COSMOS 2487 4.1 03:50:12 32° NE 03:50:12 32° NE 03:52:15 10° NNE
Cosmos 2344 3.4 03:46:42 50° SW 03:48:57 87° NW 03:56:58 10° NE
Cosmos 1833 4.0 03:48:29 71° SSW 03:49:09 90° WNW 03:54:50 10° NNE
Cosmos 1386 Rocket 4.4 03:46:18 10° NNW 03:52:36 63° W 03:53:42 55° SW
CENTAUR R/B 3.2 03:45:04 10° NW 03:53:12 84° NE 04:02:08 10° SE
Cosmos 2251 Rocket 3.6 03:53:53 51° S 03:55:15 76° ESE 04:00:39 10° NNE
Cosmos 2360 Rocket 4.1 04:04:24 15° S 04:04:24 15° S 04:05:22 10° S
ISS -2.4 04:00:41 39° ENE 04:00:41 39° ENE 04:03:14 10° E
ADEOS II 4.2 03:57:07 10° NNW 03:58:26 14° NW 03:58:26 14° NW
IDEFIX/ARIANE 42P 3.9 03:57:30 10° N 04:00:30 25° NW 04:00:30 25° NW
Meteor 2-17 Rocket 4.4 03:56:43 10° N 04:02:48 82° E 04:08:52 10° S
ALOS 2.9 03:58:47 10° NNE 04:03:22 53° E 04:07:02 15° S
PAYLOAD A 4.0 03:58:18 10° N 04:03:38 77° WNW 04:05:04 50° SSW
CZ-2C R/B 3.9 04:01:51 10° N 04:04:15 34° N 04:04:15 34° N
Cosmos 2237 Rocket 4.1 04:02:03 10° N 04:07:00 29° NE 04:11:53 10° ESE
Cosmos 2333 4.1 04:01:51 10° NNW 04:07:39 77° WSW 04:13:26 10° SSE
USA 234 3.4 04:03:32 10° SSE 04:09:48 48° SW 04:11:34 39° W
CZ-4C R/B 2.7 04:10:13 26° S 04:12:47 52° ESE 04:18:23 10° NE
Cosmos 883 Rocket 4.3 04:11:11 28° SSW 04:14:33 72° W 04:20:42 10° N
USA 276 2.7 04:16:02 57° ENE 04:16:02 57° ENE 04:18:40 10° ENE
PSLV R/B 3.4 04:11:38 10° NNE 04:16:03 84° WNW 04:17:21 45° SSW
GENESIS II 4.4 04:17:05 56° NW 04:17:05 56° NW 04:20:51 10° NNE
Lacrosse 5 1.9 04:19:24 49° W 04:20:17 56° SW 04:25:13 10° SSE
NOSS 3-4 (A) 3.9 04:16:30 18° SSW 04:20:46 55° ESE 04:26:51 10° NE
NOSS 3-4 (C) 3.9 04:16:34 17° SSW 04:20:53 55° ESE 04:26:56 10° NE
NOSS 3-2 (C) 4.0 04:16:37 10° NW 04:24:11 76° SW 04:32:44 10° SSE
Cosmos 2221 4.1 04:30:18 20° NW 04:30:18 20° NW 04:32:23 10° NNW
Cosmos 2333 Rocket 2.1 04:23:11 10° NNW 04:28:55 66° WSW 04:34:37 10° SSE
Cosmos 1484 Rocket 2.6 04:29:15 10° NNE 04:32:59 86° E 04:35:27 20° SSW
Cosmos 1805 Rocket 3.7 04:29:15 10° NNW 04:33:35 50° W 04:37:53 10° SSW
Cosmos 1437 Rocket 3.9 04:29:58 10° S 04:33:52 47° E 04:37:45 10° NNE
ATLAS 2AS CENTAUR R/B 3.7 04:28:23 10° SSW 04:36:00 54° ESE 04:43:34 10° NE
Landsat 5 3.3 04:32:39 10° S 04:36:24 52° W 04:40:15 10° NNW
SJ-6F 4.4 04:32:20 10° NNE 04:36:32 87° WNW 04:40:18 13° SSW
Cosmos 2315 Rocket 4.0 04:34:41 14° SSW 04:39:59 56° WNW 04:46:07 10° N
CZ-2C R/B 2.8 04:35:57 10° N 04:40:18 37° WNW 04:41:25 32° W
CZ-4B R/B 3.2 04:37:53 10° SE 04:40:39 31° ENE 04:43:24 10° N
COSMO-SKYMED 1 3.5 04:37:24 10° SSE 04:41:36 51° ENE 04:45:50 10° N
Cosmos 2297 Rocket 4.1 04:36:48 10° SSE 04:41:39 30° ESE 04:46:31 10° NE
Cosmos 2219 Rocket 2.2 04:37:57 10° NNW 04:43:31 59° WSW 04:49:04 10° S
Cosmos 1782 3.5 04:39:58 10° S 04:43:50 56° E 04:47:44 10° NNE
Cosmos 1606 3.6 04:47:57 29° WNW 04:47:57 29° WNW 04:51:20 10° NNW
CBERS 1 LM4 rocket 4.2 04:43:18 10° NNE 04:48:06 77° WNW 04:52:48 10° SSW
Cosmos 1140 Rocket 3.7 04:44:06 10° SSW 04:49:17 74° ESE 04:54:28 10° NNE
Sich 1 3.3 04:46:00 10° NNW 04:50:13 44° W 04:54:21 10° SSW
Cosmos 1980 4.3 04:46:36 10° NNW 04:52:14 61° ENE 04:57:50 10° SE
Meteor 1-26 Rocket 4.4 04:46:49 10° S 04:52:32 79° E 04:58:29 10° NNE
METEOR-M 4.0 04:48:46 10° N 04:54:07 73° WNW 04:59:25 10° SSW
Cosmos 1666 Rocket 3.5 04:53:05 10° NNW 04:57:24 61° W 05:01:44 10° S
Cosmos 2074 Rocket 3.9 04:52:01 10° N 04:58:16 83° W 05:04:27 10° S
COSMOS 2428 2.8 04:54:38 10° NW 05:00:10 51° WSW 05:05:40 10° S
MOS 1 Rocket 3.2 04:56:18 10° SSE 05:00:43 88° ENE 05:05:23 10° NNW
Cosmos 1023 Rocket 4.4 04:55:48 10° SSW 05:01:01 86° WNW 05:06:13 10° NNE
SeaSat 1 2.4 04:56:10 10° SSE 05:01:06 88° NE 05:06:04 10° NNW
BREEZE M DEB (TANK) 2.4 04:59:34 23° WNW 05:01:14 78° NNE 05:08:11 10° ESE
ARIANE 5 R/B 4.4 05:01:35 10° NNW 05:03:21 12° NW 05:03:43 12° WNW
BREEZE-M DEB (TANK) 3.0 05:00:37 20° W 05:03:26 51° N 05:05:51 10° ENE
CZ-4C R/B 4.2 05:04:28 22° WNW 05:04:28 22° WNW 05:06:35 10° NW
ATLAS 5 CENTAUR R/B 1.3 05:00:51 18° SW 05:03:45 77° NW 05:08:16 10° NE
USA 238 DEB 4.4 04:57:32 10° NW 05:04:02 36° WSW 05:10:45 10° S
USA 238 4.4 04:57:38 10° NW 05:04:09 36° WSW 05:10:53 10° S
Cosmos 2154 Rocket 4.2 04:59:27 10° N 05:05:43 76° E 05:11:59 10° SSE
ATLAS 3B R/B 3.3 05:01:17 10° NW 05:08:11 61° NE 05:15:22 10° SE
CZ-4B R/B 3.5 05:05:06 10° N 05:08:48 74° WNW 05:12:25 10° SSW
ADEOS 3.5 05:04:10 10° NNE 05:09:25 79° WNW 05:14:38 10° SSW
Cosmos 1602 3.8 05:07:17 10° NNW 05:11:08 54° W 05:14:56 10° S
FENGYUN 3A 4.2 05:10:09 10° N 05:15:08 38° WNW 05:20:05 10° SW
USA 267 4.2 05:11:32 10° NE 05:17:24 37° N 05:23:17 10° WNW
H-2A R/B 2.6 05:14:19 10° SSW 05:18:05 32° W 05:21:51 10° NNW
Cosmos 1151 Rocket 3.2 05:15:24 10° SSW 05:19:35 49° WNW 05:23:46 10° N
Cosmos 909 Rocket 4.3 05:14:58 11° WSW 05:21:07 50° NW 05:27:16 10° NNE
Cosmos 2219 3.9 05:15:51 10° S 05:21:24 59° ESE 05:26:57 10° NNE
NOSS 0 Rocket 4.0 05:18:00 10° NW 05:24:04 60° WSW 05:30:08 10° S
COSMOS 2487 4.4 05:23:34 12° WNW 05:24:08 12° NW 05:25:34 10° NNW
Cosmos 2184 Rocket 4.1 05:18:58 10° NNW 05:25:08 56° W 05:31:19 10° SSW
Meteor 2-12 Rocket 4.5 05:19:18 10° N 05:25:30 88° W 05:31:40 10° S
Cosmos 1633 Rocket 3.6 05:24:24 10° NNW 05:28:25 35° W 05:32:22 10° SSW
SKYMED 2 3.7 05:25:26 10° S 05:29:39 51° W 05:33:54 10° NNW
USA-17 4.4 05:28:21 10° SW 05:32:11 87° SE 05:35:21 10° NE
H-2A R/B 2.7 05:30:02 10° NNE 05:33:57 87° WNW 05:37:50 10° SSW
Cosmos 1242 Rocket 2.5 05:31:15 10° S 05:34:42 83° E 05:38:13 10° NNE
ISS -3.1 05:33:39 10° WNW 05:36:46 40° SW 05:39:56 10° SE
Cosmos 468 Rocket 4.5 05:32:01 10° NNW 05:37:13 66° ENE 05:42:19 10° SSE
Cosmos 1812 2.6 05:36:03 10° SSW 05:39:53 78° W 05:43:45 10° N
ALOS 3.6 05:37:00 10° NNW 05:40:24 20° WNW 05:43:48 10° WSW
CZ-2C R/B 3.5 05:36:16 10° SSE 05:41:47 59° ENE 05:47:17 10° N
CENTAUR R/B 4.0 05:36:34 10° NW 05:43:26 29° WSW 05:50:41 10° SSW
Meteor 1-11 Rocket 4.3 05:38:54 10° N 05:44:25 63° ENE 05:49:56 10° SSE
BREEZE-M DEB (TANK) 3.6 05:42:41 10° NW 05:44:26 23° NNE 05:46:39 10° ENE
Meteor 1-31 Rocket 3.6 05:42:01 10° N 05:45:24 29° WNW 05:48:44 10° SW
Meteor 1-14 Rocket 4.5 05:40:57 10° NNW 05:46:25 50° W 05:51:57 10° SSW
Cosmos 1954 Rocket 4.0 05:42:47 10° SSW 05:48:01 66° WNW 05:53:15 10° NNE
RESURS DK-1 2.4 05:44:17 10° SSW 05:48:24 87° ESE 05:52:33 10° NNE
SAR-Lupe-4 3.6 05:46:55 10° SSE 05:50:29 90° ESE 05:54:05 10° NNW
Cosmos 2237 Rocket 2.4 05:45:51 10° NW 05:51:21 53° WSW 05:56:49 10° S
Cosmos 1869 Rocket 4.1 05:46:55 10° N 05:51:25 67° E 05:55:51 10° SSE
